Pagina principale
METAR-TAF:

METAR-TAF

Aeroporti :

Payerne, Svizzera

latitudine: 46-49N, longitudine: 006-57E, altezza: 490 m

Osservazione

Il bollettino è stato emesso 34 minuti fa, alle 12:20 UTC
Vento 2 kt da direzioni variabili
Temperature 20°C
Umidità 68%
Pressione 1020 hPa
Visibilità 10 km o più
Poco nuvoloso ad un'altezza di 14000 ft

METAR: LSMP 271220Z VRB02KT 9999 FEW140 20/14 Q1020 RMK BLU+

Ora: 14:54 (12:54 UTC)


TAF: mancante

Osservazioni e previsioni meteorologiche di più di 4000 aeroporti (messaggi METAR e TAF).

Le stazioni disponibili sono rappresentate dai dischi gialli e rossi sulla carta.

Puntare il mouse per vedere il nome della stazione.

Clicca sopra per visualizzare le osservazioni e previsioni meteorologiche.

Per cambiare la mappa : fare clic sui pulsanti verdi con una croce nera per ingrandire, il pulsante verde con un trattino per diminuire, o sulla freccia verde per le mappe adiacenti.


METAR-TAF: